Regional Weather Roundup
Issued by NWS

Home | Current Version | Previous Version | Graphics & Text | Print | Product List | Glossary Off
Versions: 1 2 3 4 5 6 7 8 9 10 11 12 13 14 15 16 17 18 19 20 21 22 23 24 25 26 27 28 29 30 31 32 33 34 35 36 37 38 39 40 41 42 43 44 45 46 47 48 49 50

000
ASUS43 KDTX 030410
RWRMI
MICHIGAN HOURLY REGIONAL WEATHER ROUNDUP
NATIONAL WEATHER SERVICE DETROIT/PONTIAC MI
1100 PM EST MON MAR 02 2015

NOTE: "FAIR" INDICATES FEW OR NO CLOUDS BELOW 12,000 FEET WITH NO
SIGNIFICANT WEATHER AND/OR OBSTRUCTION TO VISIBILITY.

MIZ047>049-052>055-059>063-066>070-074>076-081>083-030500-
SOUTHEAST LOWER MICHIGAN

CITY           SKY/WX    TMP DP  RH WIND       PRES   REMARKS
ADRIAN           N/A     20  13  74 SW5       30.37S
ALMA             N/A     19  15  83 CALM      30.32F
ANN ARBOR        N/A     22  13  68 S6        30.36S
BAD AXE          N/A      5   2  88 SE3       30.34F
DETROIT CITY     N/A     23  13  65 CALM      30.37S
DETROIT        CLOUDY    24  15  68 S5        30.38S
FLINT            N/A     18   9  68 S5        30.33F
GROSSE ILE       N/A     19  16  86 S6        30.37S
HILLSDALE      MOCLDY    22  14  72 S6        30.32S
HOWELL           N/A     21  12  69 S3        30.33S

CITY           SKY/WX    TMP DP  RH WIND       PRES   REMARKS
JACKSON          N/A     24  13  62 S7        30.33S
LAMBERTVILLE     N/A     25  16  68 SW5       30.38S
LANSING          N/A     24  14  65 S3        30.34S
LAPEER         NOT AVBL
MASON            N/A     22  14  69 CALM      30.33S
MONROE           N/A     21  16  79 SW5       30.37F
MT. CLEMENS    CLOUDY    12   8  85 E3        30.35S
PONTIAC        MOCLDY    18  11  74 CALM      30.32F
PORT HOPE        N/A     18   7  62 SW6       30.33F
PORT HURON       N/A     16   9  73 CALM      30.38F
TRI CITIES       N/A     23  12  62 S3        30.33F
YPSILANTI        N/A     25  14  63 SW8       30.36F
$$
MIZ043>046-050>051-056>058-064>065-071>073-077>080-030500-
SOUTHWEST LOWER MICHIGAN

CITY           SKY/WX    TMP DP  RH WIND       PRES   REMARKS
BATTLE CREEK   CLOUDY    26  14  60 S7        30.33F
BENTON HARBOR  CLOUDY    24  17  74 SE3       30.33F
BIG RAPIDS       N/A     19  10  69 CALM      30.28F
COLDWATER      CLOUDY    23  14  68 S3        30.33F
HOLLAND        CLOUDY    23  15  71 SE5       30.33F
GRAND RAPIDS   CLOUDY    23  14  68 S6        30.32F
KALAMAZOO      CLOUDY    25  14  63 S9        30.33F
MARSHALL       MOCLDY    24  13  64 S5        30.33S
MUSKEGON         N/A     24  15  68 S6        30.32F
$$
MIZ016>042-030500-
NORTHERN LOWER MICHIGAN

CITY           SKY/WX    TMP DP  RH WIND       PRES   REMARKS
ALPENA           N/A      3  -3  76 CALM      30.32F
BEAVER ISLAND    N/A     12   6  79 CALM      30.27F
BELLAIRE         N/A      2  -1  85 CALM      30.30F
CADILLAC         N/A      5   1  80 CALM      30.24F
CHARLEVOIX       N/A      3  -1  85 CALM      30.31F
FRANKFORT        N/A      8   5  87 CALM      30.29F
GAYLORD          N/A      1  -6  72 CALM      30.24F
GRAYLING         N/A     -6 -12  75 CALM      30.28F
HARBOR SPRINGS   N/A      4  -1  81 CALM      30.28F
HOUGHTON LAKE    N/A      4  -2  76 CALM      30.27F
MANISTEE         N/A     12   9  85 E3        30.29F
OSCODA           N/A      6  -4  64 CALM      30.32F
PELLSTON         N/A     -2  -7  79 CALM      30.29F
TRAVERSE CITY    N/A      6   1  80 CALM      30.29F
$$
MIZ007>008-015-030500-
EASTERN UPPER MICHIGAN

CITY           SKY/WX    TMP DP  RH WIND       PRES   REMARKS
KINROSS          N/A      7   3  85 S3        30.27F
MACKINAC ISLAN   N/A     14   5  69 S8        30.27F
NEWBERRY         N/A     12   8  82 S9        30.23F
S. S. MARIE      N/A      4  -1  80 E5        30.28F
$$
MIZ004>006-011>014-085-030500-
CENTRAL UPPER MICHIGAN

CITY           SKY/WX    TMP DP  RH WIND       PRES   REMARKS
MANISTIQUE       N/A     20  15  82 S8        30.24F
ESCANABA         N/A     18  12  79 S5        30.26R
MENOMINEE        N/A     19  10  68 SW6       30.25R
SAWYER-GWINN     N/A     14   6  69 S10       30.16F
$$
MIZ001>003-009>011-084-030500-
WESTERN UPPER MICHIGAN

CITY           SKY/WX    TMP DP  RH WIND       PRES   REMARKS
IRON MOUNTAIN    N/A     15   4  61 SE6       30.16F
HOUGHTON         N/A      5   4  95 CALM      30.09F
COPPER HARBOR    N/A     18   9  68 VRB7      30.12F
IRONWOOD         N/A     18   1  49 S8G17     30.07F
$$

ABBREVIATIONS USED IN REMARKS
   TC - TEMPERATURE IN CELSIUS
  WCI - WIND CHILL INDEX
   HX - HEAT INDEX
  VSB - VISIBILITY




USA.gov is the U.S. government's official web portal to all federal, state and local government web resources and services.